Weather History for Beatrice, NE

Change the Weather History Date:

Sunday, February 24, 2013

  Actual Average Record
Temperature  
Mean Temperature 32 °F -  
Max Temperature 42 °F 46 °F 72 °F (1981)
Min Temperature 23 °F 23 °F -11 °F (1965)
Degree Days  
Heating Degree Days 32    
Moisture  
Dew Point 24 °F    
Average Humidity 68    
Maximum Humidity 82    
Minimum Humidity 46    
Precipitation  
Precipitation 0.00 in - - ()
Sea Level Pressure  
Sea Level Pressure 29.95 in    
Wind  
Wind Speed 6 mph (ESE)    
Max Wind Speed 9 mph    
Max Gust Speed -    
Visibility 10 miles    
Events      
Averages and records for this station are not official NWS values.
T = Trace of Precipitation, MM = Missing Value Source: NWS Daily Summary

Daily Weather History Graph

Daily Weather History Graph

Search for Another Location

Airport:

Trip Planner

Search our weather history database for the weather conditions in past years. The results will help you decide how hot, cold, wet, or windy it might be!

Date:

Astronomy

Feb. 24, 2013 Rise Set
Actual Time 7:07 AM CST 6:13 PM CST
Civil Twilight 6:40 AM CST 6:40 PM CST
Nautical Twilight 6:08 AM CST 7:12 PM CST
Astronomical Twilight 5:37 AM CST 7:43 PM CST
Moon 5:25 PM CST (2/24) 6:05 AM CST (2/24)
Length of Visible Light 12h 00m
Length of Day
11h 05m
Waxing Gibbous, 99% of the Moon is Illuminated
Feb 24
Waxing Gibbous
Feb 25
Full
Mar 4
Last Quarter
Mar 11
New
Mar 19
First Quarter

Hourly Weather History & Observations

Time (CST) Temp. Windchill Dew Point Humidity Pressure Visibility Wind Dir Wind Speed Gust Speed Precip Events Conditions
12:15 AM 27.1 °F 18.9 °F 21.0 °F 78% 29.89 in 10.0 mi South 8.1 mph - N/A   Clear
12:35 AM 27.5 °F 18.6 °F 21.0 °F 77% 29.89 in 10.0 mi South 9.2 mph - N/A   Clear
12:55 AM 27.7 °F 18.8 °F 21.2 °F 77% 29.89 in 10.0 mi South 9.2 mph - N/A   Clear
1:15 AM 27.3 °F 18.4 °F 20.8 °F 77% 29.90 in 10.0 mi South 9.2 mph - N/A   Clear
1:35 AM 27.1 °F 18.2 °F 20.8 °F 77% 29.91 in 10.0 mi South 9.2 mph - N/A   Clear
1:55 AM 26.6 °F 18.2 °F 20.3 °F 77% 29.92 in 7.0 mi South 8.1 mph - N/A   Clear
2:15 AM 26.6 °F 20.0 °F 20.7 °F 78% 29.92 in 7.0 mi South 5.8 mph - N/A   Clear
2:35 AM 26.6 °F 19.1 °F 20.8 °F 79% 29.91 in 7.0 mi South 6.9 mph - N/A   Clear
2:55 AM 26.4 °F 19.8 °F 20.3 °F 78% 29.91 in 7.0 mi South 5.8 mph - N/A   Clear
3:15 AM 25.5 °F 18.7 °F 20.1 °F 80% 29.90 in 7.0 mi SSE 5.8 mph - N/A   Clear
3:35 AM 23.9 °F 19.5 °F 18.9 °F 81% 29.90 in 7.0 mi South 3.5 mph - N/A   Scattered Clouds
3:55 AM 24.3 °F - 19.6 °F 82% 29.90 in 7.0 mi Calm Calm - N/A   Mostly Cloudy
4:15 AM 26.2 °F 22.1 °F 20.8 °F 80% 29.91 in 7.0 mi South 3.5 mph - N/A   Overcast
4:35 AM 26.6 °F 19.1 °F 21.0 °F 79% 29.90 in 10.0 mi South 6.9 mph - N/A   Overcast
4:55 AM 27.3 °F 22.0 °F 21.2 °F 78% 29.90 in 10.0 mi South 4.6 mph - N/A   Overcast
5:15 AM 28.2 °F 23.1 °F 21.6 °F 76% 29.91 in 10.0 mi South 4.6 mph - N/A   Overcast
5:35 AM 28.6 °F 24.8 °F 21.7 °F 76% 29.91 in 10.0 mi South 3.5 mph - N/A   Overcast
5:55 AM 28.4 °F 24.6 °F 21.2 °F 74% 29.92 in 10.0 mi South 3.5 mph - N/A   Overcast
6:15 AM 29.1 °F 25.4 °F 22.1 °F 75% 29.92 in 10.0 mi South 3.5 mph - N/A   Overcast
6:35 AM 29.1 °F 25.4 °F 21.9 °F 74% 29.92 in 10.0 mi SE 3.5 mph - N/A   Overcast
6:55 AM 28.0 °F 24.2 °F 21.7 °F 77% 29.92 in 10.0 mi ESE 3.5 mph - N/A   Overcast
7:15 AM 27.5 °F 23.6 °F 21.7 °F 79% 29.92 in 10.0 mi SE 3.5 mph - N/A   Overcast
7:35 AM 27.9 °F 24.0 °F 21.2 °F 76% 29.93 in 10.0 mi SE 3.5 mph - N/A   Overcast
7:55 AM 27.5 °F - 21.7 °F 79% 29.94 in 7.0 mi Calm Calm - N/A   Overcast
8:15 AM 28.0 °F - 21.2 °F 76% 29.95 in 10.0 mi Calm Calm - N/A   Overcast
8:35 AM 27.5 °F 23.6 °F 20.5 °F 75% 29.95 in 10.0 mi East 3.5 mph - N/A   Mostly Cloudy
8:55 AM 27.0 °F 23.0 °F 20.1 °F 75% 29.95 in 10.0 mi ESE 3.5 mph - N/A   Mostly Cloudy
9:15 AM 28.6 °F - 20.3 °F 71% 29.96 in 10.0 mi Calm Calm - N/A   Overcast
9:35 AM 30.4 °F - 21.2 °F 69% 29.98 in 10.0 mi Calm Calm - N/A   Scattered Clouds
9:55 AM 32.0 °F 28.7 °F 21.6 °F 65% 29.99 in 10.0 mi South 3.5 mph - N/A   Scattered Clouds
10:15 AM 33.1 °F - 21.9 °F 64% 29.98 in 10.0 mi Calm Calm - N/A   Mostly Cloudy
10:35 AM 35.1 °F 31.0 °F 21.9 °F 59% 29.98 in 10.0 mi SSE 4.6 mph - N/A   Scattered Clouds
10:55 AM 36.5 °F 31.8 °F 21.9 °F 56% 29.98 in 10.0 mi SSE 5.8 mph - N/A   Clear
11:15 AM 37.2 °F 32.6 °F 22.3 °F 55% 29.99 in 10.0 mi South 5.8 mph - N/A   Clear
11:35 AM 38.5 °F 32.7 °F 22.5 °F 53% 29.99 in 10.0 mi SSE 8.1 mph - N/A   Clear
11:55 AM 39.2 °F 33.6 °F 21.9 °F 50% 29.99 in 10.0 mi South 8.1 mph - N/A   Clear
12:15 PM 40.3 °F 36.3 °F 21.9 °F 48% 29.98 in 10.0 mi SE 5.8 mph - N/A   Clear
12:35 PM 41.0 °F 38.0 °F 22.5 °F 48% 29.96 in 10.0 mi ESE 4.6 mph - N/A   Clear
12:55 PM 41.2 °F 35.5 °F 23.2 °F 49% 29.95 in 10.0 mi ESE 9.2 mph - N/A   Clear
1:15 PM 41.5 °F 38.6 °F 23.4 °F 49% 29.94 in 10.0 mi ESE 4.6 mph - N/A   Clear
1:35 PM 42.1 °F 36.6 °F 22.6 °F 46% 29.93 in 10.0 mi SE 9.2 mph - N/A   Clear
1:55 PM 42.3 °F 37.3 °F 23.7 °F 48% 29.92 in 10.0 mi ESE 8.1 mph - N/A   Scattered Clouds
2:15 PM 42.3 °F 37.9 °F 23.2 °F 47% 29.92 in 10.0 mi East 6.9 mph - N/A   Mostly Cloudy
2:35 PM 41.9 °F 38.2 °F 23.4 °F 48% 29.91 in 10.0 mi East 5.8 mph - N/A   Overcast
2:55 PM 41.5 °F 37.8 °F 23.4 °F 49% 29.91 in 10.0 mi East 5.8 mph - N/A   Overcast
3:15 PM 41.2 °F 36.6 °F 24.1 °F 51% 29.91 in 10.0 mi East 6.9 mph - N/A   Overcast
3:35 PM 41.0 °F 36.4 °F 25.0 °F 53% 29.91 in 10.0 mi East 6.9 mph - N/A   Overcast
3:55 PM 40.6 °F 35.4 °F 24.6 °F 53% 29.91 in 10.0 mi ENE 8.1 mph - N/A   Overcast
4:15 PM 40.5 °F 34.6 °F 24.8 °F 54% 29.91 in 10.0 mi ENE 9.2 mph - N/A   Overcast
4:35 PM 39.7 °F 34.3 °F 25.5 °F 57% 29.92 in 10.0 mi ENE 8.1 mph - N/A   Overcast
4:55 PM 39.2 °F 33.0 °F 26.2 °F 60% 29.92 in 10.0 mi ENE 9.2 mph - N/A   Overcast
5:15 PM 38.3 °F 31.9 °F 27.7 °F 66% 29.93 in 10.0 mi NE 9.2 mph - N/A   Overcast
5:35 PM 37.4 °F 32.1 °F 27.9 °F 68% 29.93 in 10.0 mi NE 6.9 mph - N/A   Overcast
5:55 PM 37.0 °F 31.0 °F 27.5 °F 68% 29.95 in 10.0 mi ENE 8.1 mph - N/A   Overcast
6:15 PM 36.5 °F 31.0 °F 27.0 °F 68% 29.96 in 10.0 mi ENE 6.9 mph - N/A   Overcast
6:35 PM 35.8 °F 30.1 °F 27.1 °F 71% 29.96 in 10.0 mi NE 6.9 mph - N/A   Overcast
6:55 PM 35.6 °F 29.9 °F 27.1 °F 71% 29.96 in 10.0 mi NE 6.9 mph - N/A   Overcast
7:15 PM 35.6 °F 29.2 °F 27.0 °F 71% 29.97 in 10.0 mi NE 8.1 mph - N/A   Overcast
7:35 PM 35.6 °F 30.7 °F 27.1 °F 71% 29.99 in 10.0 mi NE 5.8 mph - N/A   Overcast
7:55 PM 35.4 °F 29.0 °F 27.3 °F 72% 30.00 in 10.0 mi NE 8.1 mph - N/A   Overcast
8:15 PM 35.6 °F 30.7 °F 27.5 °F 72% 30.00 in 10.0 mi NE 5.8 mph - N/A   Overcast
8:35 PM 35.2 °F 30.3 °F 27.5 °F 73% 30.01 in 10.0 mi NE 5.8 mph - N/A   Overcast
8:55 PM 35.2 °F 29.5 °F 27.5 °F 73% 30.01 in 10.0 mi NE 6.9 mph - N/A   Overcast
9:15 PM 35.1 °F 30.1 °F 27.9 °F 75% 30.01 in 10.0 mi NE 5.8 mph - N/A   Overcast
9:35 PM 35.2 °F 30.3 °F 27.7 °F 74% 30.03 in 10.0 mi NNE 5.8 mph - N/A   Overcast
9:55 PM 34.9 °F 27.7 °F 28.2 °F 77% 30.02 in 10.0 mi NNE 9.2 mph - N/A   Overcast
10:15 PM 34.9 °F 27.7 °F 28.0 °F 76% 30.02 in 10.0 mi NNE 9.2 mph - N/A   Overcast
10:35 PM 35.2 °F 28.8 °F 27.5 °F 73% 30.03 in 10.0 mi NNE 8.1 mph - N/A   Overcast
10:55 PM 35.2 °F 29.5 °F 27.3 °F 73% 30.03 in 10.0 mi NNE 6.9 mph - N/A   Overcast
11:15 PM 35.1 °F 30.1 °F 27.5 °F 74% 30.03 in 10.0 mi NNE 5.8 mph - N/A   Overcast
11:35 PM 34.7 °F 28.1 °F 28.2 °F 77% 30.02 in 10.0 mi NNE 8.1 mph - N/A   Overcast
11:55 PM 35.1 °F 28.6 °F 28.0 °F 76% 30.02 in 10.0 mi NNE 8.1 mph - N/A   Overcast